Flag for Canada Weather past 2 weeks in Pond Inlet, Nunavut, Canada

Now
50 °F

Sunny.


Feels Like: 48 °F
Forecast: 41 / 48 °F
Wind: 6 mph from South

Location: Pond Inlet

Current Time: Aug 4, 2015 at 12:03:04 AM

Latest Report: Aug 3, 2015 at 11:00 PM


Visibility: 9 mi

Pressure: 30.21 "Hg

Humidity: 58%

Dew point: 36 °F

Location of Pond InletLocation

Historic Weather in Pond Inlet — Graph

°F

Pond Inlet temperature yesterday

Maximum temperature yesterday: 55 °F (at 5:00 PM)
Minimum temperature yesterday: 41 °F (at 3:00 AM)
Average temperature yesterday: 49 °F

Past Weeks' High & Low Weather Summary

 TemperatureHumidityPressure
High64 °F (Jul 23, 4:00 PM)93% (Jul 27, 4:00 AM)30.28 "Hg (Jul 27, 4:00 AM)
Low36 °F (Jul 27, 4:00 AM)38% (Aug 2, 9:00 AM)29.85 "Hg (Jul 27, 5:00 PM)
Average47 °F67%30.04 "Hg
* Reported Jul 19 11:00 PM — Aug 3 11:00 PM, Pond Inlet, Weather by CustomWeather, © 2015

Note: Actual official high and low records may vary slightly from our data, if they occured in-between our weather recording intervals... More about our weather records

Advertising

Pond Inlet weather history for previous 24 hours

 ConditionsComfort  
Time TempWeatherWind HumidityBarometerVisibility
11:00 PM
Mon, Aug 3
50 °FSunny.6 mph58%30.21 "Hg9 mi
10:00 PM54 °FSunny.2 mph58%30.21 "Hg7 mi
9:00 PM52 °FSunny.2 mph62%30.22 "Hg9 mi
8:00 PM52 °FSunny.No wind58%30.22 "Hg6 mi
7:00 PM54 °FSunny.2 mph58%30.23 "Hg7 mi
6:59 PM55 °FSunny.3 mph55%30.23 "Hg5 mi
5:00 PM55 °FSunny.5 mph38%30.25 "Hg9 mi
4:00 PM54 °FSunny.3 mph44%30.26 "Hg9 mi
3:00 PM52 °FBroken clouds.2 mph54%30.26 "Hg35 mi
2:00 PM52 °FBroken clouds.2 mph47%30.26 "Hg35 mi
1:00 PM50 °FScattered clouds.3 mph58%30.27 "Hg40 mi
12:00 PM52 °FScattered clouds.5 mph50%30.27 "Hg40 mi
11:00 AM52 °FPassing clouds.3 mph50%30.28 "Hg40 mi
10:00 AM52 °FSunny.3 mph50%30.28 "Hg9 mi
9:00 AM48 °FSunny.3 mph62%30.28 "Hg9 mi
8:00 AM45 °FSunny.5 mph76%30.28 "Hg9 mi
7:00 AM43 °FSunny.No wind81%30.28 "Hg9 mi
6:00 AM41 °FSunny.2 mph87%30.27 "Hg9 mi
5:00 AM41 °FSunny.5 mph81%30.26 "Hg9 mi
4:00 AM45 °FSunny.2 mph57%30.24 "Hg9 mi
3:00 AM41 °FSunny.3 mph66%30.24 "Hg9 mi
2:00 AM45 °FSunny.3 mph57%30.23 "Hg9 mi
1:00 AM48 °FSunny.8 mph50%30.22 "Hg9 mi
12:00 AM50 °FSunny.6 mph50%30.22 "Hg9 mi
Weather by CustomWeather, © 2015

See weather overviewHow to use our weather pages